Weather History for KEND - October, 2012

Change the Weather History Date:

Monday, October 29, 2012

  Actual Average Record
Temperature  
Mean Temperature 52 °F -  
Max Temperature 68 °F 64 °F 86 °F (2006)
Min Temperature 37 °F 46 °F 36 °F (2011)
Degree Days  
Heating Degree Days 12    
Growing Degree Days 2 (Base 50)    
Moisture  
Dew Point 30 °F    
Average Humidity 46    
Maximum Humidity 70    
Minimum Humidity 24    
Precipitation  
Precipitation 0.00 in - - ()
Sea Level Pressure  
Sea Level Pressure 30.17 in    
Wind  
Wind Speed 10 mph (South)    
Max Wind Speed 16 mph    
Max Gust Speed 22 mph    
Visibility 10 miles    
Events      
Averages and records for this station are not official NWS values.
T = Trace of Precipitation, MM = Missing Value Source: NWS Daily Summary

Daily Weather History Graph

Daily Weather History Graph

Search for Another Location

Airport or City:

Trip Planner

Search our weather history database for the weather conditions in past years. The results will help you decide how hot, cold, wet, or windy it might be!

Date:

Astronomy

Oct. 29, 2012 Rise Set
Actual Time 7:52 AM CDT 6:37 PM CDT
Civil Twilight 7:25 AM CDT 7:04 PM CDT
Nautical Twilight 6:55 AM CDT 7:34 PM CDT
Astronomical Twilight 6:25 AM CDT 8:04 PM CDT
Moon 6:32 PM CDT (10/29) 7:43 AM CDT (10/29)
Length of Visible Light 11h 38m
Length of Day
10h 45m
Full, 100% of the Moon is Illuminated
Oct 29
Full
Oct 29
Full
Nov 6
Last Quarter
Nov 13
New
Nov 20
First Quarter

Hourly Weather History & Observations

Time (CDT) Temp. Windchill Dew Point Humidity Pressure Visibility Wind Dir Wind Speed Gust Speed Precip Events Conditions
12:55 AM 43.3 °F 38.1 °F 28.2 °F 55% 30.24 in 10.0 mi SE 9.2 mph - N/A   Clear
1:55 AM 41.9 °F 37.5 °F 28.8 °F 60% 30.23 in 10.0 mi SE 6.9 mph - N/A   Clear
2:55 AM 37.4 °F 30.8 °F 28.4 °F 70% 30.24 in 10.0 mi SSE 9.2 mph - N/A   Clear
3:55 AM 41.0 °F 36.4 °F 30.2 °F 65% 30.23 in 10.0 mi SE 6.9 mph - N/A   Partly Cloudy
4:55 AM 39.2 °F 33.0 °F 28.4 °F 65% 30.22 in 10.0 mi SSE 9.2 mph - N/A   Partly Cloudy
5:56 AM 39.2 °F 33.0 °F 28.4 °F 65% 30.22 in 10.0 mi South 9.2 mph - N/A   Partly Cloudy
6:55 AM 39.2 °F 32.0 °F 28.4 °F 65% 30.22 in 10.0 mi SSE 11.5 mph - N/A   Partly Cloudy
7:55 AM 37.4 °F 32.1 °F 26.6 °F 65% 30.25 in 10.0 mi SSE 6.9 mph - N/A   Scattered Clouds
8:55 AM 41.0 °F 34.3 °F 28.4 °F 61% 30.27 in 10.0 mi SSE 11.5 mph - N/A   Scattered Clouds
9:55 AM 48.2 °F - 26.6 °F 43% 30.26 in 10.0 mi South 13.8 mph - N/A   Mostly Cloudy
10:55 AM 53.6 °F - 28.4 °F 38% 30.25 in 10.0 mi South 15.0 mph - N/A   Scattered Clouds
11:55 AM 57.2 °F - 30.2 °F 36% 30.24 in 10.0 mi South 16.1 mph - N/A   Scattered Clouds
12:56 PM 62.6 °F - 30.2 °F 30% 30.20 in 10.0 mi South 15.0 mph - N/A   Scattered Clouds
1:55 PM 64.4 °F - 30.2 °F 28% 30.17 in 10.0 mi South 15.0 mph 21.9 mph N/A   Mostly Cloudy
2:56 PM 66.2 °F - 30.2 °F 26% 30.14 in 10.0 mi South 15.0 mph 21.9 mph N/A   Scattered Clouds
3:55 PM 66.2 °F - 30.2 °F 26% 30.11 in 10.0 mi South 10.4 mph 20.7 mph N/A   Mostly Cloudy
3:56 PM 66.2 °F - 30.2 °F 26% 30.11 in 10.0 mi South 10.4 mph 20.7 mph N/A   Mostly Cloudy
4:55 PM 68.0 °F - 30.2 °F 24% 30.09 in 10.0 mi South 15.0 mph - N/A   Scattered Clouds
5:55 PM 64.4 °F - 30.2 °F 28% 30.08 in 10.0 mi SSW 11.5 mph - N/A   Scattered Clouds
6:55 PM 57.2 °F - 32.0 °F 38% 30.09 in 10.0 mi SSE 9.2 mph - N/A   Scattered Clouds
7:55 PM 53.6 °F - 32.0 °F 44% 30.10 in 10.0 mi South 10.4 mph - N/A   Partly Cloudy
8:55 PM 53.8 °F - 31.8 °F 43% 30.09 in 10.0 mi South 11.5 mph - N/A   Clear
9:55 PM 51.8 °F - 31.8 °F 47% 30.09 in 10.0 mi South 11.5 mph - N/A   Clear
10:55 PM 49.1 °F - 32.0 °F 52% 30.07 in 10.0 mi South 11.5 mph - N/A   Clear
11:55 PM 47.3 °F - 32.7 °F 57% 30.06 in 10.0 mi South 8.1 mph - N/A   Clear